Flag for South Korea Weather past 2 weeks in Daegu, South Korea

Now
54 °F

Light rain. Fog.


Feels Like: 53 °F
Forecast: 47 / 60 °F
Wind: 3 mph from Southeast

Location: Taegu Ab

Current Time: Apr 19, 2015 at 9:16:40 AM

Latest Report: Apr 19, 2015 at 8:00 AM


Visibility: 3 mi

Pressure: 29.86 "Hg

Humidity: 94%

Dew point: 52 °F

Location of DaeguLocation

Historic Weather in Daegu — Graph

°F

Daegu temperature yesterday

Maximum temperature yesterday: 70 °F (at 4:00 PM)
Minimum temperature yesterday: 43 °F (at 4:00 AM)
Average temperature yesterday: 56 °F

Past Weeks' High & Low Weather Summary

 TemperatureHumidityPressure
High73 °F (Apr 16, 2:00 PM)94% (Apr 5, 9:00 PM)30.35 "Hg (Apr 5, 9:00 PM)
Low37 °F (Apr 9, 6:00 AM)16% (Apr 17, 1:00 PM)29.59 "Hg (Apr 16, 4:00 PM)
Average52 °F65%30.05 "Hg
* Reported Apr 4 8:00 AM — Apr 19 8:00 AM, Daegu, Weather by CustomWeather, © 2015

Note: Actual official high and low records may vary slightly from our data, if they occured in-between our weather recording intervals... More about our weather records

Advertising

Daegu weather history for previous 24 hours

 ConditionsComfort  
Time TempWeatherWind HumidityBarometerVisibility
8:00 AM
Sun, Apr 19
54 °FLight rain. Fog.3 mph94%29.86 "Hg3 mi
7:00 AM52 °FLight rain. Fog.3 mph94%29.86 "Hg3 mi
6:00 AM54 °FLight rain. Fog.2 mph94%29.86 "Hg3 mi
5:00 AM54 °FLight rain. Mostly cloudy.1 mph88%29.86 "Hg4 mi
4:00 AM54 °FLight rain. Mostly cloudy.2 mph88%29.89 "Hg5 mi
2:55 AM54 °FLight rain. Mostly cloudy.1 mph82%29.90 "HgN/A
12:55 AM54 °FLight rain. Mostly cloudy.2 mph82%29.94 "HgN/A
11:58 PM
Sat, Apr 18
55 °FLight rain. Overcast.3 mph67%29.98 "Hg5 mi
10:55 PM52 °FLight rain. Overcast.3 mph88%29.97 "HgN/A
10:00 PM52 °FLight rain. Overcast.3 mph82%29.98 "Hg6 mi
9:00 PM55 °FLight rain. Overcast.3 mph67%29.98 "Hg5 mi
8:00 PM66 °FLight rain. Passing clouds.6 mph21%29.92 "HgN/A
7:00 PM70 °FClear.6 mph20%29.89 "Hg10 mi
6:00 PM70 °FSunny.3 mph25%29.89 "Hg10 mi
5:00 PM70 °FSunny.1 mph23%29.89 "Hg10 mi
4:00 PM70 °FSunny.5 mph25%29.92 "Hg10 mi
3:00 PM68 °FSunny.1 mph28%29.95 "Hg10 mi
1:00 PM63 °FSunny.6 mph39%30.01 "Hg10 mi
12:00 PM61 °FSunny.5 mph39%30.04 "Hg10 mi
11:00 AM61 °FSunny.2 mph34%30.04 "Hg10 mi
10:00 AM57 °FSunny.3 mph39%30.07 "Hg10 mi
9:00 AM52 °FSunny.5 mph50%30.07 "Hg10 mi
Weather by CustomWeather, © 2015

See weather overviewHow to use our weather pages